User: anonymous
Location: Brno
(49.2000°N, 16.6330°E)
Time: 07:16:26
(UTC+02:00)
Language:

BREEZE M DEB (TANK) - Orbit

View from above orbital plane
View from above orbital plane
View from above satellite
View from above satellite

Ground track
Ground track

The orbit data is extracted from the following two-line orbital elements,

1 28359U 04022B   14205.22238968  .00002119  00000-0  32887-3 0  2264
2 28359 049.5376 016.7261 4711039 053.7582 104.9759 06.11339864219975
Epoch (UTC): 24 July 2014 05:20:14
Eccentricity: 0.4711039
inclination: 49.5376°
perigee height: 304 km
apogee height: 12208 km
right ascension of ascending node: 16.7261°
argument of perigee: 53.7582°
revolutions per day: 6.11339864
mean anomaly at epoch: 104.9759°
orbit number at epoch: 21997

The dashed part of the orbit path shows where the satellite is in the earth's shadow,  

DLR